KUIPER-00049

导读 | 豆包AI

KUIPER-00049是美国亚马逊“柯伊伯计划”低轨卫星互联网项目的卫星,于2025年6月23日发射,属于项目大规模部署阶段的组网卫星。该项目计划发射超过3000颗卫星,旨在为全球提供高速低延迟互联网接入,KUIPER-00049将助力项目构建覆盖全球的卫星通信网络,推动偏远地区联网及边缘云服务的落地。

Basic Information
目录编号:
64509
目录名称:
KUIPER-00049
国际标识:
2025-134K
轨道中心:
EARTH
卫星名称:
KUIPER-00049
卫星全名:
KUIPER-00049
卫星状态:
在轨 (已飞行264 天)
发射日期:
2025-06-23 UTC
国别 :
美国 (US)
星等 :
--
Orbit Information
数据来源 国际轨道数据 AOE轨道数据
星历时间 2026-03-13T01:00:53+0800
1天前
查看轨道信息
2026-03-13T10:00:00+0800
1天前
查看轨道信息
半长轴 6996.806km 6996.772km
偏心率 0.0001486 0.0001275
轨道倾角 51.899° 51.899°
近地点辐角 141.736° 134.709°
升交点赤经 215.381° 213.717°
平近点角 218.371° 65.931°
近地点 617.629km 617.742km
远地点 619.709km 619.528km
周期 97.075分钟 97.075分钟
每日圈数 14.833821 14.833929
Detailed Information
使用方式:
暂无
2D Orbit Map
3D Orbit Map
Orbit Altitude Analysis Chart
Orbit Inclination Analysis Chart
Orbit Comprehensive Analysis Chart
View Comprehensive Chart